When you browse on this site, cookies collect data to enhance your experience and personalize the content and advertising you see.
Visit our Privacy Policy to learn more. By continuing to use the site, you agree to this use of cookies and data.
  • In Österreich
  • Länderverzeichnis
  • Für 7 Tage
  • Wassertemperatur
  • Satellitenkarten
  • Wetterkarte
  • News
  • Widgets
  • user-avatar
    Anmelden

    Stündliche Wetter Spring Valley

    Heute, 17 Februar, Sonntag

    Zeit Temperatur Niederschläge Wind Luftdruck Luftfeuchtigkeit
    00:00 -4°C° 0 mm 2 m/S 750 mmHg 72%
    01:00 -5°C° 0 mm 2 m/S 750 mmHg 72%
    02:00 -5°C° 0 mm 2 m/S 751 mmHg 72%
    03:00 -5°C° 0 mm 2 m/S 751 mmHg 71%
    04:00 -5°C° 0 mm 2 m/S 751 mmHg 71%
    05:00 -5°C° 0 mm 2 m/S 751 mmHg 70%
    06:00 -3°C° 0 mm 1 m/S 752 mmHg 70%
    07:00 -3°C° 0 mm 1 m/S 752 mmHg 70%
    08:00 -2°C° 0 mm 1 m/S 752 mmHg 63%
    09:00 -1°C° 0 mm 1 m/S 752 mmHg 56%
    10:00 +1°C° 0 mm 1 m/S 752 mmHg 49%
    11:00 +2°C° 0 mm 1 m/S 752 mmHg 45%
    12:00 +3°C° 0 mm 1 m/S 752 mmHg 42%
    13:00 +4°C° 0 mm 1 m/S 752 mmHg 39%
    14:00 +4°C° 0 mm 1 m/S 751 mmHg 39%
    15:00 +4°C° 0 mm 1 m/S 751 mmHg 39%
    16:00 +2°C° 0 mm 2 m/S 750 mmHg 40%
    17:00 +1°C° 0 mm 2 m/S 750 mmHg 44%
    18:00 +1°C° 0 mm 2 m/S 750 mmHg 47%
    19:00 -1°C° 0 mm 2 m/S 750 mmHg 51%
    20:00 -2°C° 0.5 mm 2 m/S 750 mmHg 64%
    21:00 0°C° 0.5 mm 1 m/S 749 mmHg 76%
    22:00 0°C° 0.5 mm 1 m/S 749 mmHg 89%
    23:00 0°C° 0.6 mm 1 m/S 748 mmHg 91%

    Morgen, 18 Februar, Montag

    Zeit Temperatur Niederschläge Wind Luftdruck Luftfeuchtigkeit
    00:00 -2°C° 0.6 mm 2 m/S 748 mmHg 92%
    01:00 -2°C° 0.6 mm 2 m/S 747 mmHg 94%
    02:00 -2°C° 0.9 mm 2 m/S 747 mmHg 95%
    03:00 -1°C° 0.9 mm 2 m/S 746 mmHg 96%
    04:00 -1°C° 0.9 mm 2 m/S 745 mmHg 97%
    05:00 -1°C° 0.6 mm 2 m/S 745 mmHg 97%
    06:00 -1°C° 0.6 mm 2 m/S 745 mmHg 97%
    07:00 +1°C° 0.6 mm 1 m/S 744 mmHg 97%
    08:00 +1°C° 0.1 mm 1 m/S 744 mmHg 97%
    09:00 +2°C° 0.1 mm 1 m/S 744 mmHg 96%
    10:00 +2°C° 0.1 mm 1 m/S 744 mmHg 96%
    11:00 +3°C° 0.1 mm 1 m/S 745 mmHg 95%
    12:00 +2°C° 0.1 mm 0 m/S 745 mmHg 94%
    13:00 +3°C° 0.1 mm 0 m/S 745 mmHg 93%
    14:00 +4°C° 0.1 mm 1 m/S 746 mmHg 90%
    15:00 +3°C° 0.1 mm 2 m/S 746 mmHg 87%
    16:00 +1°C° 0.1 mm 4 m/S 747 mmHg 84%
    17:00 0°C° 0 mm 4 m/S 748 mmHg 81%
    18:00 -2°C° 0 mm 5 m/S 750 mmHg 78%
    19:00 -4°C° 0 mm 5 m/S 751 mmHg 75%
    20:00 -5°C° 0 mm 5 m/S 752 mmHg 73%
    21:00 -6°C° 0 mm 5 m/S 754 mmHg 72%
    22:00 -7°C° 0 mm 5 m/S 755 mmHg 70%
    23:00 -7°C° 0 mm 5 m/S 755 mmHg 68%

    übermorgen, 19 Februar, Dienstag

    Zeit Temperatur Niederschläge Wind Luftdruck Luftfeuchtigkeit
    00:00 -8°C° 0 mm 5 m/S 756 mmHg 67%
    01:00 -10°C° 0 mm 5 m/S 757 mmHg 65%
    02:00 -9°C° 0 mm 4 m/S 757 mmHg 65%
    03:00 -9°C° 0 mm 4 m/S 758 mmHg 65%
    04:00 -10°C° 0 mm 4 m/S 758 mmHg 64%
    05:00 -10°C° 0 mm 4 m/S 759 mmHg 65%
    06:00 -9°C° 0 mm 3 m/S 760 mmHg 65%
    07:00 -9°C° 0 mm 3 m/S 760 mmHg 66%
    08:00 -8°C° 0 mm 3 m/S 761 mmHg 62%
    09:00 -7°C° 0 mm 3 m/S 761 mmHg 59%
    10:00 -6°C° 0 mm 3 m/S 762 mmHg 55%
    11:00 -5°C° 0 mm 3 m/S 762 mmHg 53%
    12:00 -4°C° 0 mm 3 m/S 762 mmHg 51%
    13:00 -3°C° 0 mm 4 m/S 762 mmHg 48%
    14:00 -3°C° 0 mm 4 m/S 762 mmHg 48%
    15:00 -3°C° 0 mm 4 m/S 762 mmHg 49%
    16:00 -3°C° 0 mm 4 m/S 762 mmHg 49%
    17:00 -4°C° 0 mm 3 m/S 762 mmHg 53%
    18:00 -5°C° 0 mm 3 m/S 762 mmHg 58%
    19:00 -6°C° 0 mm 3 m/S 762 mmHg 62%
    20:00 -6°C° 0 mm 3 m/S 763 mmHg 63%
    21:00 -6°C° 0 mm 2 m/S 763 mmHg 64%
    22:00 -6°C° 0 mm 2 m/S 763 mmHg 65%
    23:00 -6°C° 0 mm 2 m/S 763 mmHg 65%

    20 Februar, Mittwoch

    Zeit Temperatur Niederschläge Wind Luftdruck Luftfeuchtigkeit
    00:00 -4°C° 0 mm 1 m/S 763 mmHg 65%
    01:00 -4°C° 0 mm 1 m/S 763 mmHg 66%
    02:00 -4°C° 0 mm 1 m/S 763 mmHg 67%
    03:00 -6°C° 0 mm 1 m/S 763 mmHg 68%
    04:00 -6°C° 0 mm 1 m/S 763 mmHg 69%
    05:00 -6°C° 0 mm 1 m/S 763 mmHg 69%
    06:00 -6°C° 0 mm 1 m/S 763 mmHg 69%
    07:00 -6°C° 0 mm 1 m/S 762 mmHg 69%
    08:00 -4°C° 0 mm 1 m/S 762 mmHg 66%
    09:00 -3°C° 0 mm 1 m/S 762 mmHg 63%
    10:00 -3°C° 0 mm 1 m/S 762 mmHg 60%
    11:00 -4°C° 0 mm 2 m/S 761 mmHg 60%
    12:00 -4°C° 0 mm 2 m/S 761 mmHg 60%
    13:00 -5°C° 0 mm 3 m/S 760 mmHg 61%
    14:00 -5°C° 0.3 mm 3 m/S 759 mmHg 67%
    15:00 -5°C° 0.3 mm 3 m/S 758 mmHg 73%
    16:00 -5°C° 0.3 mm 3 m/S 758 mmHg 79%
    17:00 -5°C° 0.2 mm 4 m/S 757 mmHg 82%
    18:00 -5°C° 0.2 mm 4 m/S 756 mmHg 86%
    19:00 -4°C° 0.2 mm 4 m/S 756 mmHg 89%
    20:00 -3°C° 0.1 mm 4 m/S 755 mmHg 90%
    21:00 -3°C° 0.1 mm 4 m/S 754 mmHg 92%
    22:00 -2°C° 0.1 mm 4 m/S 753 mmHg 94%
    23:00 0°C° 0.3 mm 3 m/S 751 mmHg 95%

    21 Februar, Donnerstag

    Zeit Temperatur Niederschläge Wind Luftdruck Luftfeuchtigkeit
    00:00 0°C° 0.3 mm 3 m/S 750 mmHg 97%
    01:00 +1°C° 0.3 mm 2 m/S 749 mmHg 98%
    02:00 +1°C° 0.2 mm 2 m/S 749 mmHg 98%
    03:00 +2°C° 0.2 mm 1 m/S 748 mmHg 98%
    04:00 +2°C° 0.2 mm 1 m/S 747 mmHg 98%
    05:00 +2°C° 0 mm 1 m/S 747 mmHg 97%
    06:00 +2°C° 0 mm 1 m/S 747 mmHg 97%
    07:00 +1°C° 0 mm 2 m/S 747 mmHg 96%
    08:00 +2°C° 0 mm 3 m/S 748 mmHg 89%
    09:00 +3°C° 0 mm 4 m/S 749 mmHg 82%
    10:00 +5°C° 0 mm 5 m/S 749 mmHg 75%
    11:00 +5°C° 0 mm 5 m/S 749 mmHg 70%
    12:00 +4°C° 0 mm 6 m/S 750 mmHg 66%
    13:00 +4°C° 0 mm 6 m/S 750 mmHg 61%
    14:00 +4°C° 0 mm 6 m/S 751 mmHg 62%
    15:00 +3°C° 0 mm 6 m/S 751 mmHg 62%
    16:00 +2°C° 0 mm 5 m/S 752 mmHg 63%
    17:00 +1°C° 0 mm 5 m/S 752 mmHg 66%
    18:00 0°C° 0 mm 4 m/S 753 mmHg 70%
    19:00 -2°C° 0 mm 4 m/S 754 mmHg 73%
    20:00 -1°C° 0 mm 3 m/S 755 mmHg 74%
    21:00 -1°C° 0 mm 3 m/S 755 mmHg 75%
    22:00 -2°C° 0 mm 2 m/S 756 mmHg 76%
    23:00 -2°C° 0 mm 2 m/S 756 mmHg 77%

    22 Februar, Freitag

    Zeit Temperatur Niederschläge Wind Luftdruck Luftfeuchtigkeit
    00:00 0°C° 0 mm 1 m/S 756 mmHg 77%
    01:00 0°C° 0 mm 1 m/S 757 mmHg 78%
    02:00 0°C° 0 mm 1 m/S 757 mmHg 79%
    03:00 -1°C° 0 mm 1 m/S 757 mmHg 79%
    04:00 -1°C° 0 mm 1 m/S 757 mmHg 79%
    05:00 -1°C° 0 mm 1 m/S 758 mmHg 79%
    06:00 -1°C° 0 mm 1 m/S 758 mmHg 78%
    07:00 -1°C° 0 mm 1 m/S 759 mmHg 78%
    08:00 0°C° 0 mm 1 m/S 759 mmHg 73%
    09:00 +1°C° 0 mm 1 m/S 759 mmHg 67%
    10:00 +2°C° 0 mm 1 m/S 759 mmHg 62%
    11:00 +4°C° 0 mm 1 m/S 759 mmHg 58%
    12:00 +5°C° 0 mm 1 m/S 758 mmHg 54%
    13:00 +5°C° 0 mm 0 m/S 758 mmHg 49%
    14:00 +6°C° 0 mm 1 m/S 758 mmHg 50%
    15:00 +6°C° 0 mm 1 m/S 758 mmHg 50%
    16:00 +6°C° 0 mm 1 m/S 757 mmHg 51%
    17:00 +5°C° 0 mm 1 m/S 758 mmHg 55%
    18:00 +3°C° 0 mm 1 m/S 758 mmHg 59%
    19:00 +2°C° 0 mm 1 m/S 758 mmHg 63%
    20:00 +2°C° 0 mm 1 m/S 758 mmHg 66%
    21:00 +2°C° 0 mm 1 m/S 758 mmHg 68%
    22:00 +1°C° 0 mm 1 m/S 758 mmHg 71%
    23:00 +1°C° 0 mm 1 m/S 758 mmHg 74%
    Mehr zeigen